Regional Weather Roundup
Issued by NWS Albany, NY

Home | Current Version | Previous Version | Text Only | Print | Product List | Glossary On
Versions: 1 2 3 4 5 6 7 8 9 10 11 12 13 14 15 16 17 18 19 20 21 22 23 24 25 26 27 28 29 30 31 32 33 34 35 36 37 38 39 40 41 42 43 44 45 46 47 48 49 50
000
ASUS41 KALY 280810
RWRALY

NEW YORK STATE HOURLY WEATHER ROUNDUP
NATIONAL WEATHER SERVICE ALBANY NY
400 AM EDT MON JUL 28 2014

NOTE: "FAIR" INDICATES FEW OR NO CLOUDS BELOW 12,000 FEET WITH NO
SIGNIFICANT WEATHER AND/OR NO OBSTRUCTIONS TO VISIBILITY.

NYZ032-033-038>043-046>054-057>066-NYZ062>081-280900-
EAST


CITY           SKY/WX    TMP DP  RH WIND       PRES   REMARKS
ALBANY         TSTM      70  66  87 NW5       29.57F
GLENS FALLS    CLOUDY    66  62  87 N8        29.57F
POUGHKEEPSIE   LGT RAIN  70  67  90 SE6       29.55F
NEWBURGH       MOCLDY    70  66  88 S9        29.58F
MONTGOMERY     CLOUDY    69  67  93 CALM      29.56S
WHITE PLAINS   TSTM      73  72  94 S12G17    29.58R FOG
ISLIP          LGT RAIN  75  72  90 S10       29.58S
NEW YORK CITY  RAIN      71  65  81 SW17G29   29.57R
CENTRAL PARK   LGT RAIN  70  67  90 VRB6      29.60F
$$

NYZ005>009-017-018-044>046-055-056-280900-
CENTRAL


CITY           SKY/WX    TMP DP  RH WIND       PRES   REMARKS
FULTON         LGT RAIN  65  63  93 VRB3      29.58F FOG
SYRACUSE       LGT RAIN  67  65  93 NE8       29.56F FOG
ROME           RAIN      65  63  93 E9        29.60F
ELMIRA         CLOUDY    66  65  96 NW3       29.57S FOG
BINGHAMTON     CLOUDY    64  63  96 CALM      29.59F
MONTICELLO     CLOUDY    66  57  72 SE6       29.60F
$$

NYZ026>034-041>043-280900-
NORTH


CITY           SKY/WX    TMP DP  RH WIND       PRES   REMARKS
WATERTOWN      CLOUDY    65  59  81 E3        29.62R
FORT DRUM      NOT AVBL
MASSENA        CLEAR     62  61  96 N8        29.62F
SARANAC LAKE   MOCLDY    51  51 100 CALM      29.63F FOG
PLATTSBURGH    FOG       60  59  96 CALM      29.61F VSB 3/4
$$

NYZ001>004-010>016-019>021-280900-
WEST


CITY           SKY/WX    TMP DP  RH WIND       PRES   REMARKS
NIAGARA FALLS  RAIN      64  62  93 NE12      29.57F FOG
BUFFALO        LGT RAIN  65  63  93 NW5       29.58F
DUNKIRK        CLOUDY    64  62  93 CALM      29.58F
JAMESTOWN      CLOUDY    61  59  94 NE3       29.61S
WELLSVILLE     LGT RAIN  64  59  83 NW6       29.62S
ROCHESTER      LGT RAIN  66  64  93 NE8       29.56F
PENN YAN       CLOUDY    66  64  93 CALM      29.57F
$$

             KEY
       WCI = WIND CHILL INDEX
       VSB = VISIBILITY
       HX  = HEAT INDEX
$$


USA.gov is the U.S. government's official web portal to all federal, state and local government web resources and services.